User: anonymous   Login
Location: Arrodets-la-Barthe
(43.0306°N, 0.2829°E)
Time: 09:07:59
(UTC+00:00)
Language:

SWARM C - Orbit

View from above orbital plane
View from above orbital plane
View from above satellite
View from above satellite

Ground track
Ground track

The orbit data is extracted from the following two-line orbital elements,

1 39453U 13067C   22019.53350392  .00005972  00000-0  11820-3 0  9993
2 39453  87.3447 278.6619 0002366  86.8643 273.2886 15.46842971458886
Epoch (UTC): 19 January 2022 12:48:14
Eccentricity: 0.0002366
inclination: 87.3447°
perigee height: 424 km
apogee height: 427 km
right ascension of ascending node: 278.6619°
argument of perigee: 86.8643°
revolutions per day: 15.46842971
mean anomaly at epoch: 273.2886°
orbit number at epoch: 45888

The dashed part of the orbit path shows where the satellite is in the earth's shadow,  

DLR